,,PA_Meas_PMT16A,,PR_Meas_QMR101_102,,RH_Meas_QMH101,,SR_Meas_QMS101,,TA_Meas_QMH101,,GenWind,,GenWind,
time,status,PA,status,PR,status,RH,status,SR,status,TA,status,DirAvg,status,SpdAvg,
2010-09-18, 00:00:04,VALID,916.868,VALID,0,VALID,92.4415,VALID,0,VALID,21.0096,VALID,3,VALID,0.761719,
2010-09-18, 00:01:04,VALID,916.884,VALID,0,VALID,92.7007,VALID,0,VALID,21.0291,VALID,3,VALID,0.725,
2010-09-18, 00:02:04,VALID,916.892,VALID,0,VALID,92.8685,VALID,0,VALID,21.008,VALID,3,VALID,0.869922,
2010-09-18, 00:03:04,VALID,916.867,VALID,0,VALID,92.6245,VALID,0,VALID,20.969,VALID,348,VALID,0.717969,
2010-09-18, 00:04:04,VALID,916.879,VALID,0,VALID,92.6779,VALID,0,VALID,20.9869,VALID,348,VALID,0.799219,
2010-09-18, 00:05:04,VALID,916.879,VALID,0,VALID,92.7998,VALID,0,VALID,21.008,VALID,348,VALID,0.66875,
2010-09-18, 00:06:04,VALID,916.842,VALID,0,VALID,92.8456,VALID,0,VALID,21.008,VALID,348,VALID,0.899219,
2010-09-18, 00:07:04,VALID,916.834,VALID,0,VALID,92.6779,VALID,0,VALID,20.9885,VALID,348,VALID,1.26875,
2010-09-18, 00:08:04,VALID,916.808,VALID,0,VALID,92.7465,VALID,0,VALID,21.008,VALID,348,VALID,1.34687,
2010-09-18, 00:09:04,VALID,916.804,VALID,0,VALID,92.9218,VALID,0,VALID,20.969,VALID,352,VALID,1.2332,
2010-09-18, 00:10:04,VALID,916.838,VALID,0,VALID,92.777,VALID,0,VALID,20.93,VALID,11,VALID,1.03594,
2010-09-18, 00:11:04,VALID,916.832,VALID,0,VALID,93.12,VALID,0,VALID,20.969,VALID,11,VALID,0.666797,
2010-09-18, 00:12:04,VALID,916.831,VALID,0,VALID,92.1442,VALID,0,VALID,20.9495,VALID,11,VALID,0.896484,
2010-09-18, 00:13:04,VALID,916.794,VALID,0,VALID,92.2891,VALID,0,VALID,20.9885,VALID,11,VALID,0.754687,
2010-09-18, 00:14:04,VALID,916.813,VALID,0,VALID,92.5406,VALID,0,VALID,21.0096,VALID,11,VALID,0.915625,
2010-09-18, 00:15:04,VALID,916.785,VALID,0,VALID,92.6397,VALID,0,VALID,21.0096,VALID,11,VALID,1.06758,
2010-09-18, 00:16:04,VALID,916.777,VALID,0,VALID,92.7846,VALID,0,VALID,20.969,VALID,11,VALID,1.39258,
2010-09-18, 00:17:04,VALID,916.727,VALID,0,VALID,93.0133,VALID,0,VALID,20.969,VALID,11,VALID,0.991016,
2010-09-18, 00:18:04,VALID,916.745,VALID,0,VALID,93.3411,VALID,0,VALID,20.969,VALID,11,VALID,0.851172,
2010-09-18, 00:19:04,VALID,916.718,VALID,0,VALID,93.364,VALID,0,VALID,20.9885,VALID,11,VALID,1.00469,
2010-09-18, 00:20:04,VALID,916.708,VALID,0,VALID,93.2039,VALID,0,VALID,20.969,VALID,11,VALID,1.53711,
2010-09-18, 00:21:04,VALID,916.695,VALID,0,VALID,93.2115,VALID,0,VALID,20.9511,VALID,11,VALID,1.18125,
2010-09-18, 00:22:04,VALID,916.685,VALID,0,VALID,93.4097,VALID,0,VALID,20.9105,VALID,11,VALID,1.35859,
2010-09-18, 00:23:04,VALID,916.681,VALID,0,VALID,93.2877,VALID,0,VALID,20.9105,VALID,11,VALID,1.84102,
2010-09-18, 00:24:04,VALID,916.643,VALID,0,VALID,93.3487,VALID,0,VALID,20.891,VALID,29,VALID,1.80469,
2010-09-18, 00:25:04,VALID,916.676,VALID,0,VALID,93.3259,VALID,0,VALID,20.891,VALID,9,VALID,1.53164,
2010-09-18, 00:26:04,VALID,916.652,VALID,0,VALID,92.655,VALID,0,VALID,20.891,VALID,49,VALID,1.39453,
2010-09-18, 00:27:04,VALID,916.647,VALID,0,VALID,92.6779,VALID,0,VALID,20.9105,VALID,48,VALID,1.21484,
2010-09-18, 00:28:04,VALID,916.612,VALID,0,VALID,92.6779,VALID,0.107441,VALID,20.8894,VALID,48,VALID,1.23047,
2010-09-18, 00:29:04,VALID,916.61,VALID,0,VALID,92.5178,VALID,0,VALID,20.8699,VALID,350,VALID,1.12227,
2010-09-18, 00:30:04,VALID,916.609,VALID,0,VALID,92.7007,VALID,0.107441,VALID,20.8894,VALID,345,VALID,0.655859,
2010-09-18, 00:31:04,VALID,916.581,VALID,0,VALID,92.8303,VALID,0.107441,VALID,20.9089,VALID,345,VALID,0.403516,
2010-09-18, 00:32:04,VALID,916.623,VALID,0,VALID,91.6868,VALID,0,VALID,20.8894,VALID,345,VALID,1.23008,
2010-09-18, 00:33:04,VALID,916.595,VALID,0,VALID,90.3146,VALID,0,VALID,20.8894,VALID,344,VALID,1.65859,
2010-09-18, 00:34:04,VALID,916.578,VALID,0,VALID,90.6119,VALID,0,VALID,20.9089,VALID,344,VALID,1.04492,
2010-09-18, 00:35:04,VALID,916.557,VALID,0,VALID,90.1469,VALID,0.107441,VALID,20.9089,VALID,344,VALID,1.22578,
2010-09-18, 00:36:04,VALID,916.556,VALID,0,VALID,89.3236,VALID,0.107441,VALID,20.8894,VALID,344,VALID,1.12695,
2010-09-18, 00:37:04,VALID,916.548,VALID,0,VALID,89.1101,VALID,0.107441,VALID,20.9089,VALID,344,VALID,1.20898,
2010-09-18, 00:38:04,VALID,916.544,VALID,0,VALID,89.5142,VALID,0,VALID,20.93,VALID,344,VALID,0.900391,
2010-09-18, 00:39:04,VALID,916.517,VALID,0,VALID,89.8725,VALID,0.107441,VALID,20.9284,VALID,344,VALID,1.27539,
2010-09-18, 00:40:04,VALID,916.509,VALID,0,VALID,89.2854,VALID,0,VALID,20.9284,VALID,31,VALID,1.71875,
2010-09-18, 00:41:04,VALID,916.505,VALID,0,VALID,88.8433,VALID,0,VALID,20.9284,VALID,325,VALID,1.21328,
2010-09-18, 00:42:04,VALID,916.473,VALID,0,VALID,89.3846,VALID,0,VALID,20.9495,VALID,341,VALID,1.27891,
2010-09-18, 00:43:04,VALID,916.497,VALID,0,VALID,89.9868,VALID,0,VALID,20.93,VALID,341,VALID,1.07969,
2010-09-18, 00:44:04,VALID,916.431,VALID,0,VALID,90.124,VALID,0,VALID,20.9089,VALID,341,VALID,1.04922,
2010-09-18, 00:45:04,VALID,916.416,VALID,0,VALID,90.124,VALID,0,VALID,20.8894,VALID,8,VALID,0.886719,
2010-09-18, 00:46:04,VALID,916.409,VALID,0,VALID,90.0859,VALID,0,VALID,20.8504,VALID,10,VALID,1.47812,
2010-09-18, 00:47:04,VALID,916.423,VALID,0,VALID,89.8267,VALID,0,VALID,20.8519,VALID,30,VALID,1.85352,
2010-09-18, 00:48:04,VALID,916.38,VALID,0,VALID,88.9271,VALID,0,VALID,20.8113,VALID,39,VALID,1.37617,
2010-09-18, 00:49:04,VALID,916.351,VALID,0,VALID,89.5751,VALID,0.107441,VALID,20.8309,VALID,18,VALID,1.98516,
2010-09-18, 00:50:04,VALID,916.364,VALID,0,VALID,89.659,VALID,0,VALID,20.8129,VALID,13,VALID,1.7375,
2010-09-18, 00:51:04,VALID,916.354,VALID,0,VALID,90.2612,VALID,0.107441,VALID,20.8309,VALID,23,VALID,1.09258,
2010-09-18, 00:52:04,VALID,916.324,VALID,0,VALID,89.7047,VALID,0,VALID,20.8309,VALID,23,VALID,1.52227,
2010-09-18, 00:53:04,VALID,916.307,VALID,0,VALID,89.072,VALID,0,VALID,20.8519,VALID,32,VALID,2.16211,
2010-09-18, 00:54:04,VALID,916.275,VALID,0,VALID,89.0491,VALID,0,VALID,20.8714,VALID,34,VALID,2.01094,
2010-09-18, 00:55:04,VALID,916.291,VALID,0,VALID,89.0415,VALID,0,VALID,20.8504,VALID,23,VALID,1.75273,
2010-09-18, 00:56:04,VALID,916.28,VALID,0,VALID,89.5065,VALID,0,VALID,20.8309,VALID,13,VALID,1.3957,
2010-09-18, 00:57:04,VALID,916.264,VALID,0,VALID,89.9411,VALID,0,VALID,20.8519,VALID,17,VALID,1.07383,
2010-09-18, 00:58:04,VALID,916.264,VALID,0,VALID,89.2245,VALID,0.107441,VALID,20.8113,VALID,13,VALID,1.68242,
2010-09-18, 00:59:04,VALID,916.259,VALID,0,VALID,89.255,VALID,0,VALID,20.8113,VALID,9,VALID,1.25781,
2010-09-18, 01:00:04,VALID,916.243,VALID,0,VALID,88.5002,VALID,0,VALID,20.8309,VALID,10,VALID,1.32695,
2010-09-18, 01:01:04,VALID,916.217,VALID,0,VALID,87.6464,VALID,0,VALID,20.8714,VALID,333,VALID,1.00117,
2010-09-18, 01:02:04,VALID,916.205,VALID,0,VALID,88.4316,VALID,0,VALID,20.891,VALID,333,VALID,0.821484,
2010-09-18, 01:03:04,VALID,916.2,VALID,0,VALID,85.5576,VALID,0,VALID,20.8519,VALID,340,VALID,1.80742,
2010-09-18, 01:04:04,VALID,916.17,VALID,0,VALID,86.7087,VALID,0,VALID,20.9105,VALID,37,VALID,1.68398,
2010-09-18, 01:05:04,VALID,916.145,VALID,0,VALID,87.5168,VALID,0,VALID,20.9089,VALID,17,VALID,1.92461,
2010-09-18, 01:06:04,VALID,916.099,VALID,0,VALID,87.5702,VALID,0,VALID,20.8894,VALID,16,VALID,1.35898,
2010-09-18, 01:07:04,VALID,916.109,VALID,0,VALID,87.5778,VALID,0.107441,VALID,20.8699,VALID,1,VALID,1.32656,
2010-09-18, 01:08:04,VALID,916.1,VALID,0,VALID,87.433,VALID,0,VALID,20.8504,VALID,15,VALID,1.10234,
2010-09-18, 01:09:04,VALID,916.048,VALID,0,VALID,87.8218,VALID,0,VALID,20.8714,VALID,1,VALID,1.17656,
2010-09-18, 01:10:04,VALID,916.039,VALID,0,VALID,88.1191,VALID,0,VALID,20.8519,VALID,1,VALID,1.1832,
2010-09-18, 01:11:04,VALID,916.028,VALID,0,VALID,88.0505,VALID,0,VALID,20.8113,VALID,1,VALID,1.01172,
2010-09-18, 01:12:04,VALID,916.011,VALID,0,VALID,86.6477,VALID,0,VALID,20.8324,VALID,1,VALID,1.24063,
2010-09-18, 01:13:04,VALID,915.991,VALID,0,VALID,86.48,VALID,0,VALID,20.8519,VALID,1,VALID,0.75,
2010-09-18, 01:14:04,VALID,916.019,VALID,0,VALID,86.8078,VALID,0,VALID,20.8504,VALID,1,VALID,1.22422,
2010-09-18, 01:15:04,VALID,915.996,VALID,0,VALID,86.8688,VALID,0,VALID,20.891,VALID,1,VALID,0.806641,
2010-09-18, 01:16:04,VALID,916.025,VALID,0,VALID,87.5778,VALID,0,VALID,20.891,VALID,355,VALID,1.07578,
2010-09-18, 01:17:04,VALID,916.005,VALID,0,VALID,86.785,VALID,0,VALID,20.8714,VALID,355,VALID,1.26133,
2010-09-18, 01:18:04,VALID,916.057,VALID,0,VALID,86.4648,VALID,0,VALID,20.8504,VALID,326,VALID,1.04766,
2010-09-18, 01:19:04,VALID,916.07,VALID,0,VALID,86.8307,VALID,0,VALID,20.8504,VALID,325,VALID,1.25195,
2010-09-18, 01:20:04,VALID,916.051,VALID,0,VALID,86.8002,VALID,0,VALID,20.8309,VALID,356,VALID,1.03086,
2010-09-18, 01:21:04,VALID,916.046,VALID,0,VALID,87.715,VALID,0,VALID,20.8309,VALID,356,VALID,0.344141,
2010-09-18, 01:22:04,VALID,916.029,VALID,0,VALID,87.6312,VALID,0,VALID,20.8519,VALID,356,VALID,0.499609,
2010-09-18, 01:23:04,VALID,916.02,VALID,0,VALID,87.189,VALID,0,VALID,20.8309,VALID,356,VALID,1.00391,
2010-09-18, 01:24:04,VALID,916.001,VALID,0,VALID,86.2971,VALID,0,VALID,20.8519,VALID,19,VALID,1.79453,
2010-09-18, 01:25:04,VALID,915.986,VALID,0,VALID,85.9998,VALID,0,VALID,20.8113,VALID,25,VALID,2.35586,
2010-09-18, 01:26:04,VALID,916.012,VALID,0,VALID,86.5715,VALID,0,VALID,20.8324,VALID,15,VALID,1.3625,
2010-09-18, 01:27:04,VALID,915.979,VALID,0,VALID,86.8688,VALID,0,VALID,20.834,VALID,15,VALID,1.38672,
2010-09-18, 01:28:04,VALID,915.983,VALID,0,VALID,86.9908,VALID,0,VALID,20.7934,VALID,15,VALID,1.36094,
2010-09-18, 01:29:04,VALID,915.974,VALID,0,VALID,86.4495,VALID,0,VALID,20.7739,VALID,15,VALID,1.36641,
2010-09-18, 01:30:04,VALID,915.961,VALID,0,VALID,85.5347,VALID,0,VALID,20.7934,VALID,17,VALID,1.97578,
2010-09-18, 01:31:04,VALID,915.926,VALID,0,VALID,86.3657,VALID,0,VALID,20.8129,VALID,30,VALID,1.94922,
2010-09-18, 01:32:04,VALID,915.922,VALID,0,VALID,86.9146,VALID,0,VALID,20.7934,VALID,22,VALID,1.28125,
2010-09-18, 01:33:04,VALID,915.929,VALID,0,VALID,86.4419,VALID,0,VALID,20.7934,VALID,8,VALID,1.63359,
2010-09-18, 01:34:04,VALID,915.925,VALID,0,VALID,87.0137,VALID,0,VALID,20.7755,VALID,8,VALID,1.33633,
2010-09-18, 01:35:04,VALID,915.912,VALID,0,VALID,86.9069,VALID,0,VALID,20.7349,VALID,21,VALID,1.46953,
2010-09-18, 01:36:04,VALID,915.902,VALID,0,VALID,87.2424,VALID,0,VALID,20.7365,VALID,13,VALID,1.42891,
2010-09-18, 01:37:04,VALID,915.9,VALID,0,VALID,86.6477,VALID,0,VALID,20.6764,VALID,13,VALID,1.62422,
2010-09-18, 01:38:04,VALID,915.886,VALID,0,VALID,87.3491,VALID,0,VALID,20.717,VALID,13,VALID,0.969531,
2010-09-18, 01:39:04,VALID,915.913,VALID,0,VALID,86.6096,VALID,0,VALID,20.6959,VALID,2,VALID,1.60586,
2010-09-18, 01:40:04,VALID,915.901,VALID,0,VALID,85.7863,VALID,0,VALID,20.6764,VALID,25,VALID,2.05547,
2010-09-18, 01:41:04,VALID,915.861,VALID,0,VALID,85.3975,VALID,0,VALID,20.6959,VALID,24,VALID,1.86836,
2010-09-18, 01:42:04,VALID,915.857,VALID,0,VALID,86.1827,VALID,0.107441,VALID,20.7349,VALID,15,VALID,1.6582,
2010-09-18, 01:43:04,VALID,915.868,VALID,0,VALID,86.2666,VALID,0.107441,VALID,20.7138,VALID,15,VALID,0.784375,
2010-09-18, 01:44:04,VALID,915.867,VALID,0,VALID,86.0455,VALID,0,VALID,20.7333,VALID,15,VALID,1.34492,
2010-09-18, 01:45:04,VALID,915.877,VALID,0,VALID,86.4267,VALID,0,VALID,20.7349,VALID,15,VALID,1.3082,
2010-09-18, 01:46:04,VALID,915.83,VALID,0,VALID,85.893,VALID,0.107441,VALID,20.6748,VALID,359,VALID,1.58477,
2010-09-18, 01:47:04,VALID,915.824,VALID,0,VALID,86.419,VALID,0,VALID,20.6553,VALID,13,VALID,1.15859,
2010-09-18, 01:48:04,VALID,915.815,VALID,0,VALID,86.2132,VALID,0,VALID,20.6553,VALID,13,VALID,0.926172,
2010-09-18, 01:49:04,VALID,915.786,VALID,0,VALID,86.6554,VALID,0.107441,VALID,20.6764,VALID,13,VALID,1.19141,
2010-09-18, 01:50:04,VALID,915.769,VALID,0,VALID,86.1675,VALID,0.107441,VALID,20.6358,VALID,13,VALID,1.40625,
2010-09-18, 01:51:04,VALID,915.783,VALID,0,VALID,86.5334,VALID,0.107441,VALID,20.6569,VALID,13,VALID,1.48594,
2010-09-18, 01:52:04,VALID,915.76,VALID,0,VALID,86.5486,VALID,0,VALID,20.6553,VALID,13,VALID,1.35938,
2010-09-18, 01:53:04,VALID,915.75,VALID,0,VALID,86.5639,VALID,0,VALID,20.6748,VALID,13,VALID,0.905078,
2010-09-18, 01:54:04,VALID,915.748,VALID,0,VALID,86.7621,VALID,0,VALID,20.6959,VALID,13,VALID,0.766406,
2010-09-18, 01:55:04,VALID,915.751,VALID,0,VALID,86.8078,VALID,0.107441,VALID,20.6764,VALID,13,VALID,1.275,
2010-09-18, 01:56:04,VALID,915.76,VALID,0,VALID,87.1814,VALID,0,VALID,20.6358,VALID,13,VALID,1.07148,
2010-09-18, 01:57:04,VALID,915.736,VALID,0,VALID,87.5626,VALID,0.107441,VALID,20.6179,VALID,13,VALID,0.779297,
2010-09-18, 01:58:04,VALID,915.721,VALID,0,VALID,87.9209,VALID,0.107441,VALID,20.6163,VALID,13,VALID,0.707031,
2010-09-18, 01:59:04,VALID,915.75,VALID,0,VALID,86.3352,VALID,0,VALID,20.5968,VALID,330,VALID,1.62852,
2010-09-18, 02:00:04,VALID,915.714,VALID,0,VALID,86.6554,VALID,0.107441,VALID,20.5968,VALID,345,VALID,0.655078,
2010-09-18, 02:01:04,VALID,915.722,VALID,0,VALID,87.0289,VALID,0,VALID,20.6163,VALID,345,VALID,0.75,
2010-09-18, 02:02:04,VALID,915.728,VALID,0,VALID,86.8155,VALID,0.107441,VALID,20.6374,VALID,345,VALID,0.854297,
2010-09-18, 02:03:04,VALID,915.719,VALID,0,VALID,87.3491,VALID,0,VALID,20.6163,VALID,345,VALID,1.00781,
2010-09-18, 02:04:04,VALID,915.717,VALID,0,VALID,87.898,VALID,0.107441,VALID,20.6374,VALID,345,VALID,0.575391,
2010-09-18, 02:05:04,VALID,915.689,VALID,0,VALID,88.1648,VALID,0,VALID,20.6163,VALID,345,VALID,0.647266,
2010-09-18, 02:06:04,VALID,915.677,VALID,0,VALID,88.6832,VALID,0.107441,VALID,20.5773,VALID,345,VALID,0.634375,
2010-09-18, 02:07:04,VALID,915.651,VALID,0,VALID,88.0581,VALID,0,VALID,20.5578,VALID,345,VALID,1.06328,
2010-09-18, 02:08:04,VALID,915.653,VALID,0,VALID,86.9527,VALID,0.107441,VALID,20.5789,VALID,336,VALID,1.39609,
2010-09-18, 02:09:04,VALID,915.641,VALID,0,VALID,87.9132,VALID,0,VALID,20.5773,VALID,348,VALID,0.546484,
2010-09-18, 02:10:04,VALID,915.641,VALID,0,VALID,87.3491,VALID,0,VALID,20.5789,VALID,348,VALID,1.05547,
2010-09-18, 02:11:04,VALID,915.632,VALID,0,VALID,86.7621,VALID,0.107441,VALID,20.5773,VALID,348,VALID,0.542969,
2010-09-18, 02:12:04,VALID,915.634,VALID,0,VALID,86.6706,VALID,0.107441,VALID,20.6179,VALID,348,VALID,0.846484,
2010-09-18, 02:13:04,VALID,915.616,VALID,0,VALID,86.7621,VALID,0.107441,VALID,20.6374,VALID,348,VALID,0.976563,
2010-09-18, 02:14:04,VALID,915.616,VALID,0,VALID,87.2347,VALID,0.107441,VALID,20.6163,VALID,12,VALID,1.44883,
2010-09-18, 02:15:04,VALID,915.598,VALID,0,VALID,86.6935,VALID,0.107441,VALID,20.5789,VALID,17,VALID,1.16289,
2010-09-18, 02:16:04,VALID,915.609,VALID,0,VALID,86.8688,VALID,0,VALID,20.5578,VALID,8,VALID,0.578906,
2010-09-18, 02:17:04,VALID,915.587,VALID,0,VALID,87.4177,VALID,0.107441,VALID,20.5789,VALID,8,VALID,0.117578,
2010-09-18, 02:18:04,VALID,915.566,VALID,0,VALID,87.6007,VALID,0,VALID,20.5773,VALID,8,VALID,0.437109,
2010-09-18, 02:19:04,VALID,915.591,VALID,0,VALID,87.9818,VALID,0,VALID,20.6163,VALID,8,VALID,0.920703,
2010-09-18, 02:20:04,VALID,915.568,VALID,0,VALID,86.5258,VALID,0.107441,VALID,20.5578,VALID,8,VALID,1.02891,
2010-09-18, 02:21:04,VALID,915.576,VALID,0,VALID,86.7392,VALID,0,VALID,20.5578,VALID,7,VALID,0.676562,
2010-09-18, 02:22:04,VALID,915.571,VALID,0,VALID,86.8002,VALID,0,VALID,20.5578,VALID,7,VALID,0.985547,
2010-09-18, 02:23:04,VALID,915.557,VALID,0,VALID,86.6477,VALID,0,VALID,20.5578,VALID,7,VALID,1.24883,
2010-09-18, 02:24:04,VALID,915.528,VALID,0,VALID,86.7621,VALID,0,VALID,20.5188,VALID,7,VALID,0.876172,
2010-09-18, 02:25:04,VALID,915.536,VALID,0,VALID,87.2195,VALID,0,VALID,20.4993,VALID,7,VALID,0.719531,
2010-09-18, 02:26:04,VALID,915.52,VALID,0,VALID,86.541,VALID,0,VALID,20.5009,VALID,7,VALID,1.58438,
2010-09-18, 02:27:04,VALID,915.519,VALID,0,VALID,86.4877,VALID,0,VALID,20.4603,VALID,7,VALID,1.11289,
2010-09-18, 02:28:04,VALID,915.537,VALID,0,VALID,86.5105,VALID,0,VALID,20.5009,VALID,7,VALID,0.905859,
2010-09-18, 02:29:04,VALID,915.538,VALID,0,VALID,86.5944,VALID,0,VALID,20.4813,VALID,7,VALID,0.920313,
2010-09-18, 02:30:04,VALID,915.573,VALID,0,VALID,86.4419,VALID,0,VALID,20.4813,VALID,7,VALID,1.05664,
2010-09-18, 02:31:04,VALID,915.592,VALID,0,VALID,86.8536,VALID,0.107441,VALID,20.4813,VALID,7,VALID,0.569922,
2010-09-18, 02:32:04,VALID,915.597,VALID,0,VALID,86.5182,VALID,0,VALID,20.4798,VALID,7,VALID,0.791406,
2010-09-18, 02:33:04,VALID,915.605,VALID,0,VALID,85.9007,VALID,0,VALID,20.5009,VALID,7,VALID,0.503906,
2010-09-18, 02:34:04,VALID,915.605,VALID,0,VALID,86.1522,VALID,0,VALID,20.4993,VALID,7,VALID,0.801562,
2010-09-18, 02:35:04,VALID,915.609,VALID,0,VALID,86.4648,VALID,0,VALID,20.5383,VALID,7,VALID,0.565234,
2010-09-18, 02:36:04,VALID,915.61,VALID,0,VALID,86.3809,VALID,0.107441,VALID,20.5789,VALID,7,VALID,0.687891,
2010-09-18, 02:37:04,VALID,915.622,VALID,0,VALID,86.1294,VALID,0,VALID,20.5578,VALID,7,VALID,0.827344,
2010-09-18, 02:38:04,VALID,915.64,VALID,0,VALID,86.2056,VALID,0,VALID,20.5789,VALID,7,VALID,0.935156,
2010-09-18, 02:39:04,VALID,915.582,VALID,0,VALID,86.4495,VALID,0,VALID,20.5578,VALID,7,VALID,0.883984,
2010-09-18, 02:40:04,VALID,915.6,VALID,0,VALID,86.4724,VALID,0.107441,VALID,20.5594,VALID,7,VALID,1.09922,
2010-09-18, 02:41:04,VALID,915.608,VALID,0,VALID,86.9298,VALID,0,VALID,20.5594,VALID,7,VALID,0.935547,
2010-09-18, 02:42:04,VALID,915.629,VALID,0,VALID,86.6401,VALID,0,VALID,20.5594,VALID,7,VALID,1.01133,
2010-09-18, 02:43:04,VALID,915.599,VALID,0,VALID,86.8383,VALID,0.107441,VALID,20.5383,VALID,7,VALID,0.751953,
2010-09-18, 02:44:04,VALID,915.596,VALID,0,VALID,86.9984,VALID,0,VALID,20.5594,VALID,7,VALID,0.506641,
2010-09-18, 02:45:04,VALID,915.607,VALID,0,VALID,87.0823,VALID,0.107441,VALID,20.5383,VALID,7,VALID,0.494531,
2010-09-18, 02:46:04,VALID,915.59,VALID,0,VALID,86.8841,VALID,0.107441,VALID,20.5399,VALID,7,VALID,0.439453,
2010-09-18, 02:47:04,VALID,915.62,VALID,0,VALID,86.846,VALID,0,VALID,20.4993,VALID,7,VALID,0.604297,
2010-09-18, 02:48:04,VALID,915.617,VALID,0,VALID,87.0975,VALID,0,VALID,20.5188,VALID,7,VALID,0.555859,
2010-09-18, 02:49:04,VALID,915.626,VALID,0,VALID,86.6935,VALID,0,VALID,20.5399,VALID,7,VALID,0.601563,
2010-09-18, 02:50:04,VALID,915.643,VALID,0,VALID,86.4648,VALID,0.107441,VALID,20.5789,VALID,7,VALID,0.357031,
2010-09-18, 02:51:04,VALID,915.652,VALID,0,VALID,86.5182,VALID,0,VALID,20.5594,VALID,7,VALID,0.637891,
2010-09-18, 02:52:04,VALID,915.658,VALID,0,VALID,86.7011,VALID,0.107441,VALID,20.5594,VALID,7,VALID,0.491016,
2010-09-18, 02:53:04,VALID,915.672,VALID,0,VALID,87.5626,VALID,0,VALID,20.5594,VALID,7,VALID,0.484375,
2010-09-18, 02:54:04,VALID,915.707,VALID,0,VALID,87.7913,VALID,0.107441,VALID,20.5594,VALID,7,VALID,0.630078,
2010-09-18, 02:55:04,VALID,915.686,VALID,0,VALID,87.3339,VALID,0,VALID,20.4993,VALID,7,VALID,0.830859,
2010-09-18, 02:56:04,VALID,915.694,VALID,0,VALID,87.7531,VALID,0,VALID,20.5399,VALID,7,VALID,0.463672,
2010-09-18, 02:57:04,VALID,915.663,VALID,0,VALID,86.9069,VALID,0,VALID,20.5399,VALID,7,VALID,1.03437,
2010-09-18, 02:58:04,VALID,915.682,VALID,0,VALID,87.0823,VALID,0,VALID,20.5383,VALID,7,VALID,0.539063,
2010-09-18, 02:59:04,VALID,915.665,VALID,0,VALID,86.8764,VALID,0,VALID,20.5984,VALID,7,VALID,0.616016,
2010-09-18, 03:00:04,VALID,915.679,VALID,0,VALID,87.5626,VALID,0,VALID,20.6374,VALID,7,VALID,0.502734,
2010-09-18, 03:01:04,VALID,915.655,VALID,0,VALID,87.7379,VALID,0,VALID,20.6374,VALID,7,VALID,0.641016,
2010-09-18, 03:02:04,VALID,915.689,VALID,0,VALID,86.7545,VALID,0,VALID,20.6374,VALID,7,VALID,0.744531,
2010-09-18, 03:03:04,VALID,915.688,VALID,0,VALID,86.6859,VALID,0.107441,VALID,20.6374,VALID,7,VALID,0.848437,
2010-09-18, 03:04:04,VALID,915.666,VALID,0,VALID,87.0747,VALID,0,VALID,20.6179,VALID,7,VALID,0.225391,
2010-09-18, 03:05:04,VALID,915.692,VALID,0,VALID,86.7621,VALID,0.214882,VALID,20.6163,VALID,7,VALID,0.557031,
2010-09-18, 03:06:04,VALID,915.68,VALID,0,VALID,85.9921,VALID,0,VALID,20.6358,VALID,7,VALID,0.580078,
2010-09-18, 03:07:04,VALID,915.676,VALID,0,VALID,85.9693,VALID,0,VALID,20.6569,VALID,7,VALID,0.530469,
2010-09-18, 03:08:04,VALID,915.638,VALID,0,VALID,86.5182,VALID,0,VALID,20.6358,VALID,7,VALID,0.351953,
2010-09-18, 03:09:04,VALID,915.629,VALID,0,VALID,87.2271,VALID,0,VALID,20.6358,VALID,7,VALID,0.255078,
2010-09-18, 03:10:04,VALID,915.631,VALID,0,VALID,86.7316,VALID,0,VALID,20.6569,VALID,7,VALID,0.553516,
2010-09-18, 03:11:04,VALID,915.649,VALID,0,VALID,87.4253,VALID,0.107441,VALID,20.6163,VALID,7,VALID,0.453125,
2010-09-18, 03:12:04,VALID,915.636,VALID,0,VALID,86.3047,VALID,0.107441,VALID,20.5968,VALID,7,VALID,0.760938,
2010-09-18, 03:13:04,VALID,915.608,VALID,0,VALID,86.9222,VALID,0.107441,VALID,20.6179,VALID,7,VALID,0.601953,
2010-09-18, 03:14:04,VALID,915.617,VALID,0,VALID,86.5182,VALID,0.107441,VALID,20.5984,VALID,7,VALID,1.02891,
2010-09-18, 03:15:04,VALID,915.578,VALID,0,VALID,86.7392,VALID,0,VALID,20.5773,VALID,7,VALID,0.844531,
2010-09-18, 03:16:04,VALID,915.614,VALID,0,VALID,87.0442,VALID,0.107441,VALID,20.5773,VALID,7,VALID,0.632031,
2010-09-18, 03:17:04,VALID,915.604,VALID,0,VALID,86.8078,VALID,0.107441,VALID,20.5773,VALID,7,VALID,0.782422,
2010-09-18, 03:18:04,VALID,915.6,VALID,0,VALID,87.1356,VALID,0,VALID,20.5984,VALID,7,VALID,0.835938,
2010-09-18, 03:19:04,VALID,915.578,VALID,0,VALID,87.4863,VALID,0,VALID,20.5789,VALID,7,VALID,0.971094,
2010-09-18, 03:20:04,VALID,915.583,VALID,0,VALID,87.1356,VALID,0,VALID,20.5789,VALID,7,VALID,0.852734,
2010-09-18, 03:21:04,VALID,915.618,VALID,0,VALID,87.1966,VALID,0.107441,VALID,20.5578,VALID,7,VALID,1.05039,
2010-09-18, 03:22:04,VALID,915.565,VALID,0,VALID,87.2652,VALID,0.107441,VALID,20.5594,VALID,7,VALID,0.914453,
2010-09-18, 03:23:04,VALID,915.591,VALID,0,VALID,87.1966,VALID,0.107441,VALID,20.5383,VALID,7,VALID,0.857422,
2010-09-18, 03:24:04,VALID,915.607,VALID,0,VALID,87.6312,VALID,0,VALID,20.5594,VALID,7,VALID,0.567969,
2010-09-18, 03:25:04,VALID,915.599,VALID,0,VALID,87.3948,VALID,0,VALID,20.5383,VALID,7,VALID,0.705469,
2010-09-18, 03:26:04,VALID,915.575,VALID,0,VALID,87.5168,VALID,0,VALID,20.5594,VALID,7,VALID,0.7875,
2010-09-18, 03:27:04,VALID,915.563,VALID,0,VALID,87.7836,VALID,0,VALID,20.5383,VALID,7,VALID,0.771094,
2010-09-18, 03:28:04,VALID,915.578,VALID,0,VALID,87.9666,VALID,0,VALID,20.5383,VALID,7,VALID,0.705859,
2010-09-18, 03:29:04,VALID,915.561,VALID,0,VALID,87.9285,VALID,0,VALID,20.5383,VALID,35,VALID,0.828906,
2010-09-18, 03:30:04,VALID,915.551,VALID,0,VALID,87.3643,VALID,0.107441,VALID,20.5984,VALID,35,VALID,0.826172,
2010-09-18, 03:31:04,VALID,915.588,VALID,0,VALID,87.2347,VALID,0,VALID,20.5773,VALID,35,VALID,0.772656,
2010-09-18, 03:32:04,VALID,915.55,VALID,0,VALID,87.1738,VALID,0,VALID,20.5773,VALID,35,VALID,0.441016,
2010-09-18, 03:33:04,VALID,915.533,VALID,0,VALID,87.8522,VALID,0,VALID,20.5773,VALID,35,VALID,0.49375,
2010-09-18, 03:34:04,VALID,915.546,VALID,0,VALID,87.6922,VALID,0,VALID,20.5773,VALID,35,VALID,0.26875,
2010-09-18, 03:35:04,VALID,915.553,VALID,0,VALID,87.7608,VALID,0,VALID,20.6179,VALID,35,VALID,0.421094,
2010-09-18, 03:36:04,VALID,915.52,VALID,0,VALID,87.433,VALID,0,VALID,20.6179,VALID,35,VALID,0.522266,
2010-09-18, 03:37:04,VALID,915.574,VALID,0,VALID,87.8751,VALID,0,VALID,20.5968,VALID,35,VALID,0.0328125,
2010-09-18, 03:38:04,VALID,915.544,VALID,0,VALID,87.3872,VALID,0,VALID,20.5968,VALID,35,VALID,0.178516,
2010-09-18, 03:39:04,VALID,915.54,VALID,0,VALID,87.0899,VALID,0.107441,VALID,20.5968,VALID,35,VALID,0.270312,
2010-09-18, 03:40:04,VALID,915.524,VALID,0,VALID,87.2652,VALID,0,VALID,20.6374,VALID,35,VALID,0.302734,
2010-09-18, 03:41:04,VALID,915.536,VALID,0,VALID,87.25,VALID,0,VALID,20.6374,VALID,35,VALID,0.363672,
2010-09-18, 03:42:04,VALID,915.551,VALID,0,VALID,87.6388,VALID,0,VALID,20.5968,VALID,35,VALID,0.412109,
2010-09-18, 03:43:04,VALID,915.5,VALID,0,VALID,87.8904,VALID,0.107441,VALID,20.5968,VALID,35,VALID,0.422266,
2010-09-18, 03:44:04,VALID,915.515,VALID,0,VALID,88.0505,VALID,0.107441,VALID,20.5773,VALID,35,VALID,0.425781,